{"data":{"norad_id":57618,"epoch":"2026-05-25T00:33:32.868576Z","epoch_age_seconds":79926,"freshness":"FRESH","line1":"1 57618U 23119S   26145.02329709  .00000471  00000+0  26630-4 0  9995","line2":"2 57618  43.0047  10.2323 0001454 249.5547 110.5148 15.27578408154768","mean_motion":15.27578408,"eccentricity":0.0001454,"inclination_deg":43.0047,"raan_deg":10.2323,"arg_perigee_deg":249.5547,"mean_anomaly_deg":110.5148,"bstar":2.663e-5,"rev_number":15476,"period_min":94.266846955852,"perigee_km":482.05624591302,"apogee_km":484.051480216,"semimajor_km":6861.1908630645,"source":"CELESTRAK","updated_at":"2026-05-25T13:38:18.359901Z"}}